Terminal Aerodrome Forecast
Issued by NWS Northern Indiana

Home | Current Version | Previous Version | Graphics & Text | Print | Product List | Glossary On
Versions: 1 2 3 4 5 6 7 8 9 10 11 12 13 14 15 16 17 18 19 20 21 22
000
FTUS43 KIWX 192300
TAFFWA
TAF
KFWA 192326Z 2000/2024 21006KT P6SM BKN250
     FM200600 21008KT P6SM BKN100
     FM201500 24014KT P6SM VCSH SCT020 OVC040
     FM202100 29012KT P6SM VCSH SCT020 OVC040=

USA.gov is the U.S. government's official web portal to all federal, state and local government web resources and services.